Dewpoint
27 24 21 23 22 20 18 18 17 19 22 23 23 23 23 24 25 25 27 28 27 31 35 37 38 42 43 42 43 44 45 45 43 41 39 38 37 36 35 33 31 29 29 31
27 25 26 24 23 23 22 20 19 20 22 22 21 22 23 23 24 24 26 28 30 30 32 39 39 42 44 43 43 44 44 45 43 42 41 39 38 36 34 32 30 29 30 31
24 25 25 25 23 23 23 21 20 19 22 23 22 22 22 24 25 25 26 30 32 34 33 39 40 43 44 43 43 44 44 44 43 42 41 40 37 35 33 32 31 30 31 30
25 26 25 25 22 23 21 22 22 22 22 20 22 17 19 20 18 23 25 28 32 33 34 39 40 43 45 44 44 44 45 44 43 42 41 38 34 32 33 32 32 31 32 32
26 25 24 24 24 24 21 23 23 23 22 23 22 21 18 19 17 17 23 27 33 35 34 35 40 43 45 45 44 44 45 44 43 42 41 38 36 34 34 33 31 30 31 32
26 27 26 25 25 24 25 24 24 24 24 20 21 19 16 17 19 19 24 28 33 34 35 38 39 42 44 45 45 44 44 44 43 42 41 39 37 36 33 32 30 30 31 31
25 25 26 26 24 24 24 23 20 21 23 19 18 19 18 21 22 23 24 29 34 36 36 37 39 40 43 44 44 44 44 44 43 42 41 40 39 36 33 31 31 29 30 30
24 22 26 26 24 24 24 23 20 12 13 15 22 18 19 21 26 26 28 32 34 36 37 38 39 40 42 44 44 43 43 44 43 42 42 42 42 38 35 33 32 30 30 30
21 20 26 26 25 24 25 23 24 22 22 20 19 17 15 24 25 28 29 31 33 35 36 36 38 39 40 42 43 43 43 43 43 42 42 42 43 40 37 34 33 31 32 31
27 24 23 25 25 25 25 26 22 23 16 11 12 12 12 26 27 28 29 30 32 34 34 34 35 37 38 39 41 42 41 42 42 42 42 41 41 41 39 35 33 31 31 29
26 24 23 23 23 23 24 23 23 22 20 14 11 13 21 19 19 19 20 24 32 33 32 32 32 32 33 34 36 37 38 37 37 37 36 35 34 34 33 33 32 28 27 26
31 26 22 21 21 21 20 21 21 19 18 19 17 16 15 15 16 17 19 26 30 30 30 30 30 30 30 30 30 31 30 29 29 28 27 27 27 27 27 27 26 26 24 24
36 30 25 25 23 25 23 25 32 31 25 23 21 22 13 13 14 15 18 21 29 29 29 26 25 24 25 26 27 28 30 31 32 31 30 31 31 31 31 31 31 30 31 31
36 31 30 26 28 31 32 29 26 30 29 27 25 24 10 12 13 14 16 19 20 20 20 21 21 22 23 23 24 25 26 29 31 31 31 31 31 31 31 32 32 32 32 32
31 24 27 25 24 23 21 18 16 16 13 15 12 7 9 13 14 14 15 16 16 17 18 19 19 20 21 22 23 24 25 26 27 26 27 27 28 30 31 31 31 31 31 31
13 19 10 12 14 16 13 13 14 9 9 12 13 9 11 15 15 12 13 14 13 14 15 17 17 17 17 18 19 21 23 24 25 24 24 25 25 25 25 26 27 28 29 30
7 7 11 8 11 15 15 9 8 5 5 7 2 7 10 8 11 11 11 12 12 13 14 15 16 16 16 16 18 18 20 22 21 21 21 21 22 22 22 23 23 23 23 24
15 15 16 11 17 12 7 12 10 4 5 6 6 7 9 9 13 13 14 13 12 13 13 14 15 16 16 17 16 18 19 19 20 19 18 19 19 19 20 21 21 21 21 21
19 22 14 15 10 6 9 8 5 4 3 8 6 7 7 8 13 12 14 15 14 14 15 15 16 16 17 16 16 16 17 17 17 17 17 17 17 17 18 18 18 14 6 5
12 15 15 12 10 7 3 5 8 11 1 7 7 6 6 6 1 4 12 12 14 15 15 14 15 15 15 15 17 15 14 14 15 17 16 13 2 2 3 2 0 -0 0 1
12 6 11 9 9 1 5 6 9 2 1 7 9 7 6 4 7 9 11 10 11 11 10 9 7 8 9 9 11 11 4 -1 1 7 7 -2 -4 -2 -1 -2 -3 -3 -1 -0
5 4 5 5 8 3 7 2 -0 3 6 7 5 6 6 5 5 6 5 5 5 4 4 4 4 4 5 6 7 6 -2 -5 -4 -2 -3 -4 -5 -4 -5 -4 -3 -3 -2 -0
5 3 2 3 2 6 8 5 10 10 7 6 3 4 5 4 4 5 3 3 3 3 4 4 4 4 5 3 -1 -4 -4 -3 -2 -2 -2 -2 -3 -3 -4 -3 -3 -2 -1 1
6 5 3 3 5 1 7 9 -1 5 4 8 5 4 4 3 5 4 3 3 3 3 3 2 2 4 1 -3 -3 -3 -2 -2 -2 -2 -1 -1 -0 1 2 1 1 1 3 4
2 3 -1 2 1 2 8 2 2 3 4 4 3 3 3 4 2 2 2 2 2 2 1 1 1 -2 -3 -2 -2 -2 -2 -1 -1 -1 0 1 2 2 3 3 4 4 5 5
4 -1 -2 -2 1 3 2 2 4 3 2 2 3 2 3 1 1 1 1 0 -1 -2 -1 -4 -4 -3 -3 -3 -3 -3 -3 -2 -2 -1 0 1 3 4 5 5 5 6 7 8
Wind_Speed
9 7 20 19 22 23 20 22 19 22 7 11 20 22 25 20 23 26 27 25 25 23 24 24 23 23 22 22 24 24 22 21 18 17 16 14 13 10 8 9 10 9 8 7
5 19 22 20 20 15 13 18 22 20 13 10 15 22 24 24 26 27 27 22 23 20 15 23 24 25 24 23 23 24 22 20 18 16 14 10 14 9 9 9 6 8 8 6
20 10 3 12 20 17 19 20 20 22 12 10 14 16 19 24 23 26 24 5 7 17 18 23 24 24 23 23 23 23 22 21 18 17 16 14 12 12 8 11 8 6 9 6
19 23 28 19 14 14 21 11 13 19 11 11 4 19 16 23 28 14 18 12 10 8 7 17 21 23 23 20 20 21 21 22 20 20 18 19 16 15 8 14 11 10 9 8
9 9 8 13 23 14 14 1 3 5 10 14 13 12 8 11 12 18 18 15 13 12 10 11 18 18 17 19 21 19 20 21 20 19 18 18 16 13 14 15 16 11 10 9
21 3 4 10 1 3 8 2 2 3 3 14 18 20 14 13 16 6 16 15 13 8 3 9 12 15 18 18 19 19 20 19 19 19 19 19 18 18 19 17 17 15 12 10
12 30 12 9 6 2 6 5 5 7 7 20 8 17 24 7 1 6 10 13 12 8 4 7 14 15 18 19 20 18 19 18 18 19 18 19 18 18 22 20 18 17 15 12
8 12 22 14 19 8 14 15 12 9 12 10 6 11 9 15 8 10 13 18 15 10 5 5 6 12 15 17 18 16 17 17 18 18 18 15 13 16 17 18 17 17 17 15
7 12 5 12 4 7 6 11 14 15 21 14 12 17 18 1 4 5 8 10 9 11 8 5 7 6 7 12 14 14 13 15 16 17 16 13 11 14 15 16 13 15 14 13
7 22 10 4 3 4 4 3 5 7 8 11 13 12 11 23 29 20 17 6 8 14 11 9 9 11 11 6 7 8 9 11 12 13 13 13 11 11 13 16 15 14 16 15
6 7 11 8 9 11 7 8 9 5 14 18 21 7 15 24 27 29 31 33 11 14 15 15 16 16 16 17 14 9 5 7 5 4 4 7 8 7 8 13 13 15 16 16
13 7 17 21 17 17 22 22 25 25 23 13 25 18 17 27 28 33 35 35 21 26 24 21 22 24 24 24 24 22 22 19 15 10 7 7 7 6 7 7 10 12 14 13
17 7 16 18 16 25 23 6 19 21 17 27 24 18 24 31 35 35 35 36 29 26 24 24 24 23 23 22 22 21 19 16 15 14 14 13 11 11 11 11 12 12 13 12
7 5 9 11 6 10 7 18 17 11 10 14 15 16 38 36 33 30 30 27 27 27 26 22 22 20 19 19 20 20 20 17 12 11 11 10 8 8 8 9 9 8 7 7
5 9 12 25 24 20 13 14 14 6 9 3 11 11 22 24 21 22 22 25 27 27 25 22 21 19 19 18 17 16 16 16 14 15 15 14 12 10 8 6 6 6 6 7
10 9 22 26 21 20 15 20 8 14 11 8 9 5 22 20 14 19 21 21 23 22 23 21 20 19 20 20 19 19 17 16 14 13 14 13 13 14 14 13 12 10 9 6
22 12 9 14 14 16 1 17 12 15 18 7 11 10 20 21 14 16 17 18 18 18 18 19 17 16 17 17 17 17 17 15 15 15 15 15 13 12 12 11 11 11 10 9
8 7 6 14 16 6 5 12 15 18 12 14 12 15 18 23 2 11 14 15 15 16 17 16 16 14 11 13 15 15 14 13 11 10 10 12 12 11 10 9 7 6 5 4
5 3 5 5 6 7 5 7 5 4 6 13 14 16 19 23 11 9 18 12 11 13 13 13 12 14 13 11 12 13 12 11 11 9 9 8 8 9 9 7 6 5 4 4
13 14 4 7 4 3 2 15 15 8 5 14 13 15 15 20 14 9 21 19 15 12 11 14 12 12 11 14 10 11 11 11 11 9 8 8 8 7 7 8 7 7 7 7
8 8 7 8 3 3 11 19 5 1 6 16 13 15 14 13 10 20 19 18 15 16 15 15 14 13 11 11 11 12 13 12 9 8 10 10 9 9 9 7 8 9 8 8
5 7 6 6 3 2 16 5 4 5 9 10 14 14 15 17 20 19 19 19 18 18 17 15 15 14 13 13 11 12 13 13 11 9 12 11 10 10 11 9 9 9 8 9
4 3 3 4 1 0 4 8 2 4 10 8 13 16 15 18 19 19 19 18 18 18 17 15 15 16 14 12 12 14 12 12 13 13 13 12 13 12 12 11 11 11 10 11
3 10 2 3 2 12 7 6 12 12 15 14 13 18 17 19 18 19 19 18 18 16 18 16 17 16 15 14 15 14 16 14 14 15 14 14 13 14 12 11 11 11 11 11
4 8 8 4 8 10 6 6 11 19 17 13 16 16 18 18 20 19 19 19 18 19 18 17 15 17 17 15 15 16 18 15 15 16 15 14 13 14 14 13 12 12 11 11
7 3 4 4 7 5 15 15 22 20 15 18 19 20 15 17 19 17 18 17 16 18 15 17 17 17 18 18 18 17 15 15 15 15 14 13 14 12 12 12 13 16 21 21
Wind_Direction
192 206 221 216 217 238 268 284 285 285 209 191 235 249 266 260 254 252 243 231 227 220 209 192 186 172 171 171 164 165 167 175 165 160 159 161 169 152 142 118 136 127 134 126
197 237 245 250 260 265 268 266 262 281 266 205 267 268 273 274 258 249 249 242 234 223 202 180 175 169 175 172 167 167 171 172 167 162 168 159 161 158 143 134 134 134 136 135
224 222 16 239 250 244 255 251 262 264 284 217 275 280 268 266 257 248 248 233 212 206 194 168 171 170 168 175 172 169 172 172 168 164 166 156 126 122 133 155 155 154 144 138
251 253 250 250 243 235 250 246 260 262 263 263 142 290 265 277 274 234 221 204 173 144 146 163 169 170 174 176 169 170 173 171 171 170 169 162 167 166 177 171 166 163 150 144
231 235 240 236 238 238 263 238 280 282 265 293 264 266 274 223 279 276 209 196 173 161 178 188 171 171 171 169 172 174 173 172 174 175 167 166 172 181 164 167 160 162 154 149
256 246 232 231 211 223 125 131 233 239 236 259 239 222 282 243 243 279 130 121 109 96 110 165 162 164 167 169 172 176 175 175 175 174 173 176 185 182 161 163 164 166 160 158
244 241 215 206 229 164 180 172 267 246 203 250 203 217 239 270 180 123 145 140 128 127 160 156 161 169 169 172 172 176 174 176 175 179 184 188 198 170 167 168 169 167 167 167
270 276 195 186 212 194 189 192 204 239 235 284 119 234 249 241 95 114 102 147 136 133 93 72 151 169 171 166 168 175 179 177 176 181 192 194 190 165 169 169 172 174 174 169
263 247 47 169 162 185 175 203 240 274 283 276 253 270 287 194 180 143 145 131 138 136 118 75 12 33 152 159 165 178 184 181 185 184 187 186 178 163 165 170 170 170 162 157
259 285 254 143 100 270 200 305 195 207 251 239 254 258 285 34 14 19 11 300 160 127 94 60 25 22 33 110 163 177 189 190 185 182 178 184 204 192 175 168 173 170 160 153
333 259 257 138 198 188 194 234 225 251 228 244 262 259 6 31 22 10 355 350 17 84 69 47 23 21 30 36 37 46 71 120 137 134 135 155 160 157 145 158 163 155 146 154
337 286 269 248 260 226 223 230 221 232 244 236 241 240 42 38 25 16 5 347 354 60 53 41 28 23 24 29 27 28 31 41 34 38 73 85 93 112 135 136 132 138 146 153
347 293 269 283 246 247 255 290 353 335 282 255 257 243 35 34 29 15 17 11 28 40 44 41 35 29 23 20 24 20 20 24 32 46 59 58 57 66 70 73 71 79 87 82
344 293 295 284 338 341 305 353 353 334 274 290 259 292 6 9 16 17 14 17 24 33 35 36 36 34 31 27 23 21 19 17 27 44 56 52 42 63 68 68 76 93 106 127
184 277 304 301 298 301 11 19 39 55 6 38 9 62 4 357 14 17 16 19 22 21 24 24 24 22 21 21 20 18 20 25 32 47 51 49 46 52 70 97 116 127 143 150
327 281 322 294 285 268 90 35 47 51 18 24 67 55 357 350 23 21 21 23 20 14 15 21 21 21 17 15 13 11 11 14 21 35 43 43 48 39 41 37 42 53 64 75
280 269 306 280 299 318 293 20 75 78 38 15 43 345 338 344 15 27 17 17 18 8 8 10 12 12 11 6 8 10 7 14 28 29 24 26 32 43 42 32 31 37 33 31
264 293 253 273 290 224 97 77 71 92 54 34 16 354 347 333 260 60 36 17 7 0 358 358 356 355 6 5 3 356 2 5 14 29 29 19 15 13 15 20 23 17 7 355
161 235 295 285 60 122 179 26 358 9 55 24 6 352 348 339 304 47 22 6 358 350 346 338 346 338 343 357 354 346 349 353 352 0 1 1 1 350 341 340 325 311 300 300
21 9 289 355 301 226 75 320 314 211 222 5 1 347 349 338 354 319 347 342 343 341 336 330 333 328 337 335 332 335 333 331 330 331 335 310 305 298 292 315 320 312 299 282
354 350 22 348 33 98 339 326 332 297 314 335 350 340 340 331 308 307 320 323 323 317 317 318 324 318 316 324 320 317 319 317 319 315 307 308 311 307 295 288 291 285 284 282
34 355 13 333 321 291 351 7 71 294 316 332 339 326 324 311 308 311 316 317 320 321 323 326 322 318 320 318 312 304 305 315 323 315 302 300 302 295 293 296 291 284 276 268
3 10 336 29 314 218 92 107 355 287 296 311 321 311 305 303 305 307 311 314 317 319 319 319 316 311 311 311 311 309 310 310 305 302 299 300 298 293 288 286 282 278 269 261
49 19 29 347 32 331 213 139 23 349 320 301 307 310 302 304 301 310 311 313 314 315 315 315 315 306 313 317 317 317 314 313 307 300 298 297 293 287 278 272 273 270 260 260
341 333 328 286 9 358 189 336 332 330 311 316 309 305 306 308 309 306 307 310 311 310 310 306 313 314 310 319 320 317 312 312 303 298 294 291 291 288 283 274 270 270 268 262
358 356 358 277 329 267 280 301 313 314 325 317 311 311 312 308 302 305 303 300 303 302 314 317 311 316 318 315 311 307 306 306 302 297 294 291 294 300 295 292 286 280 282 279